Theta_e
304 301 304 311 311 310 308 305 306 308 308 305 300 298 298 298 298 298 298 298 298 298 299 299 299 299 299 299 299 299 299 300 303 304 302 302 301 301 302 306 322 328 329
302 300 301 306 309 305 303 303 303 303 301 300 298 298 298 298 298 298 298 297 297 297 297 298 299 299 298 297 297 298 298 298 298 299 299 300 299 299 299 308 309 315 326
299 306 303 299 300 300 299 298 297 298 298 298 297 297 297 297 297 297 297 297 297 297 297 297 297 297 296 300 304 305 303 297 297 297 298 298 298 297 302 308 313 315 318
300 306 300 298 298 297 297 297 297 297 297 297 297 297 297 297 297 297 297 297 296 297 297 297 296 296 297 296 297 297 303 303 297 295 296 296 296 296 301 307 311 313 314
299 301 298 298 298 298 298 297 297 297 297 297 297 297 297 297 297 297 297 297 297 297 296 296 296 296 296 296 295 295 295 299 298 294 294 294 294 295 299 305 309 310 311
299 299 298 298 298 298 297 297 297 297 298 297 298 297 297 297 297 296 296 296 296 296 295 295 295 294 295 297 299 300 300 300 298 292 292 293 293 294 303 306 308 309 310
299 298 298 298 298 298 297 297 297 298 297 297 297 297 297 296 296 296 296 295 295 295 294 294 294 295 294 294 293 293 293 293 292 292 292 293 294 300 302 305 306 307 309
299 298 298 298 298 297 297 297 297 297 297 297 297 296 296 296 296 295 295 295 295 295 294 294 295 294 294 293 295 296 295 292 292 292 293 293 294 297 302 304 305 306 307
299 298 298 298 297 297 297 297 297 297 297 296 296 296 296 296 295 295 295 295 295 294 294 294 293 293 293 292 292 291 291 291 292 292 293 293 294 299 301 303 304 305 307
299 299 298 297 297 297 297 297 297 297 296 296 296 296 296 295 295 295 295 295 294 294 294 293 292 292 291 290 290 290 291 292 290 291 293 294 296 298 300 301 303 304 305
299 298 297 297 297 297 297 297 297 297 296 296 296 296 295 295 295 295 295 295 294 294 293 293 292 291 291 290 290 289 289 289 289 291 294 294 296 299 301 302 304 304 305
299 297 297 297 296 297 297 297 296 296 296 296 296 295 295 295 295 295 294 294 294 293 293 292 291 290 290 289 289 288 288 288 288 290 293 294 295 297 299 301 302 303 305
299 298 297 297 297 297 297 296 296 296 295 295 295 295 295 295 295 294 294 294 294 293 292 291 290 289 289 288 288 287 287 289 287 290 293 294 296 298 298 301 302 303 305
299 299 298 297 297 297 296 296 296 295 295 295 295 295 294 294 294 294 294 293 293 292 291 290 289 288 288 287 287 287 287 288 288 292 293 294 294 296 298 298 301 302 303
300 299 298 296 296 296 296 296 296 295 295 295 294 294 294 294 294 294 293 293 292 291 290 290 288 288 287 287 287 286 286 288 291 292 294 294 293 295 296 296 298 300 302
300 299 298 297 296 296 296 296 296 295 295 294 294 294 293 293 293 293 293 292 291 290 290 289 287 286 287 286 286 286 287 290 292 293 294 292 292 294 294 296 296 297 300
300 299 298 297 297 297 296 296 296 295 294 294 294 293 293 293 293 292 292 292 291 290 289 288 287 286 286 286 285 286 288 291 292 293 293 292 292 293 293 294 295 295 297
299 299 298 297 296 296 296 296 295 295 294 294 294 293 293 293 292 292 292 291 291 289 288 288 287 286 286 285 285 286 289 290 290 293 291 291 291 292 294 294 294 295 295
299 299 299 297 296 296 296 296 295 295 294 294 293 293 292 292 292 292 292 291 290 289 288 287 286 285 285 285 285 286 288 289 290 290 291 290 291 293 294 294 293 294 296
299 299 298 297 296 296 296 296 296 295 294 293 293 293 292 292 292 292 291 290 290 288 288 286 285 285 285 284 285 285 287 288 289 289 290 289 290 293 293 293 292 293 296
298 298 298 297 296 296 296 296 296 295 295 293 293 293 292 292 292 291 291 290 289 288 287 285 285 285 285 285 285 286 287 287 288 289 289 289 290 293 293 293 292 292 293
298 298 298 297 296 296 296 296 296 295 293 292 292 292 292 292 292 291 290 290 288 288 286 285 284 284 285 284 283 285 286 287 287 289 289 288 289 292 292 292 292 294 291
298 297 298 297 296 296 296 296 295 294 293 292 293 292 292 292 291 291 290 289 288 287 286 285 284 284 284 284 283 284 285 286 285 287 288 288 289 292 292 292 292 294 292
298 297 297 297 296 296 296 296 295 294 294 293 292 291 291 292 291 290 289 289 288 287 286 285 284 284 284 283 284 284 285 285 285 286 287 288 289 290 291 291 293 294 293
299 297 297 296 296 296 296 295 295 295 294 292 292 291 291 291 291 290 289 289 288 287 286 285 284 284 283 284 284 284 285 285 285 285 286 286 290 290 291 291 292 295 294
298 297 296 296 296 296 295 295 295 295 294 293 292 291 291 291 290 289 289 288 287 287 286 285 284 284 283 283 283 284 284 285 285 285 285 286 287 289 291 292 291 294 297
Wind_Speed
6 3 5 6 6 7 9 10 12 12 13 16 20 21 21 21 22 23 25 27 27 28 28 28 29 28 28 28 28 29 31 33 33 35 36 36 31 33 33 35 38 35 31
7 3 1 5 6 7 9 9 11 13 15 17 18 19 20 21 22 23 24 25 27 28 28 28 28 30 31 31 28 25 27 30 31 36 39 41 40 36 31 29 32 38 38
8 5 1 3 6 7 8 10 13 14 15 16 17 19 20 21 23 24 25 27 28 29 29 30 32 32 32 30 29 29 30 28 29 31 33 38 40 37 32 29 27 28 30
9 8 3 3 5 6 7 10 12 12 13 14 16 17 19 21 21 23 25 27 28 29 30 32 34 35 36 36 33 32 30 31 33 33 32 34 36 36 33 29 29 30 32
9 6 4 2 4 5 8 8 9 11 12 13 14 17 18 20 21 22 24 26 28 30 33 34 35 35 35 34 31 30 31 32 32 34 33 35 35 34 33 31 29 31 34
9 6 4 2 3 5 5 6 8 10 10 12 14 15 16 19 21 23 25 27 30 32 33 34 35 36 35 33 31 30 30 31 33 35 35 34 35 35 29 31 30 32 35
9 6 5 2 2 3 4 6 8 8 9 11 13 15 18 20 22 24 26 28 30 31 33 34 35 35 37 37 35 34 34 34 34 37 38 33 32 29 29 30 32 33 35
10 7 5 2 1 1 3 5 6 7 9 11 14 16 18 21 23 25 28 30 32 34 35 36 34 36 39 40 35 33 33 34 36 35 33 33 34 34 31 31 32 35 35
11 8 5 4 3 1 3 4 6 8 10 11 15 17 19 22 24 26 28 30 33 34 36 37 37 39 40 39 34 33 33 35 35 35 37 37 35 32 34 35 35 36 37
12 9 7 6 3 2 2 4 7 8 10 12 14 16 20 22 24 27 29 33 35 36 38 39 39 40 41 39 39 36 34 33 35 37 38 39 34 35 36 36 37 37 37
14 11 9 6 4 2 3 5 6 8 9 11 14 17 20 23 26 28 30 33 34 37 39 41 40 41 43 43 43 41 38 38 38 40 37 42 37 38 37 35 37 37 39
16 14 10 8 5 3 4 5 7 8 10 12 14 18 21 24 26 28 30 33 35 38 40 40 40 41 43 45 44 42 41 40 41 41 38 33 38 36 35 35 37 36 38
16 14 13 10 7 6 5 6 7 9 10 12 15 18 21 24 27 29 31 34 37 39 41 41 42 43 44 45 45 42 41 40 45 38 34 38 38 35 35 36 35 37 37
20 18 15 12 9 7 6 7 8 8 10 12 15 18 22 25 27 30 33 35 37 39 40 41 42 43 44 44 43 42 41 44 40 31 36 35 38 34 34 36 38 38 37
23 20 16 14 11 9 8 7 8 9 10 12 15 18 22 25 28 30 32 34 36 39 41 42 42 43 45 46 42 42 46 43 34 31 33 37 41 34 35 36 36 38 38
25 22 17 15 13 10 9 8 9 9 11 12 15 18 21 25 28 30 32 34 36 38 40 40 41 42 44 44 43 45 45 36 30 28 31 40 42 36 36 34 36 36 35
26 24 21 18 15 13 11 9 9 9 11 12 14 17 21 25 27 29 31 33 35 38 39 40 40 41 42 43 44 44 41 30 27 34 30 42 41 38 32 35 36 36 34
26 26 23 20 17 15 12 10 9 9 11 11 13 16 20 24 26 28 30 32 35 37 38 39 41 42 41 42 45 45 36 28 33 26 38 36 42 37 33 39 35 34 33
28 28 25 23 20 17 14 12 10 9 11 11 13 16 19 23 25 26 29 31 34 36 36 37 40 40 41 42 45 46 28 32 27 41 37 38 43 40 38 40 43 38 30
29 29 27 25 22 20 16 13 11 10 10 10 12 15 18 22 24 25 27 30 33 35 36 37 38 38 36 40 44 47 32 30 28 39 43 44 45 41 40 44 46 48 44
31 31 29 27 25 22 18 15 12 10 10 11 12 14 17 20 22 24 26 29 31 33 34 34 36 38 36 39 46 52 43 39 32 34 44 47 48 45 45 50 51 57 51
35 33 31 28 27 23 20 16 13 10 10 10 11 13 15 19 20 23 25 28 30 32 33 33 34 36 34 36 35 30 33 46 52 33 51 53 52 48 51 55 54 60 55
38 36 33 30 28 24 22 19 14 11 11 10 9 11 15 17 19 21 24 27 29 30 32 31 32 32 32 31 31 27 25 29 57 41 57 54 55 52 57 59 63 65 62
38 35 34 32 30 26 25 20 15 12 11 8 9 11 13 15 17 19 22 25 27 29 30 29 29 27 29 29 31 29 29 34 35 41 59 57 58 54 58 59 69 74 66
36 36 35 33 31 29 25 21 17 15 12 9 9 9 12 15 16 18 21 23 25 28 28 28 27 25 25 26 30 33 35 35 35 35 45 61 62 55 57 59 70 76 86
34 33 34 34 33 30 25 22 18 16 12 10 8 8 11 13 15 16 19 22 24 27 28 27 25 23 24 24 27 31 31 38 44 43 44 48 51 54 54 62 69 73 77
Wind_Direction
164 185 180 78 60 50 45 43 41 39 34 31 29 24 16 13 11 9 7 5 2 359 356 353 349 344 339 333 329 325 322 320 320 317 312 308 296 291 288 280 271 266 263
186 175 194 84 65 58 54 49 45 43 38 32 27 18 14 11 9 7 5 4 360 357 356 354 349 346 340 335 331 325 322 319 312 308 308 306 306 303 291 290 281 271 262
165 112 104 51 60 55 53 45 43 42 36 29 19 13 10 8 7 5 3 0 359 357 355 352 349 344 341 337 334 331 326 317 311 306 303 303 303 303 300 293 292 291 283
158 159 145 87 67 54 48 42 41 38 32 24 15 9 7 6 3 2 1 360 358 356 354 352 349 347 342 338 334 331 326 322 317 311 307 305 303 300 298 295 289 287 281
159 189 154 121 71 49 41 39 38 34 26 16 7 5 4 2 360 359 359 359 358 356 355 353 351 347 342 338 334 331 326 321 316 311 311 310 309 302 298 293 289 288 286
168 184 160 109 53 43 39 31 31 27 16 7 2 0 359 357 358 359 360 359 358 358 357 353 350 347 343 338 332 327 324 320 318 315 313 310 307 305 299 296 291 285 284
185 194 167 137 62 29 21 22 22 12 4 360 357 358 358 357 357 358 359 359 358 357 355 354 351 348 345 342 339 333 329 325 320 315 315 311 309 304 298 293 289 286 285
196 199 184 162 150 336 18 18 8 357 357 355 354 357 357 356 356 358 359 358 356 356 354 353 350 348 346 343 337 332 327 325 320 316 314 309 302 303 301 294 289 287 285
199 203 203 197 215 312 18 1 353 350 352 347 353 354 354 355 356 357 357 356 355 354 353 352 350 348 346 342 337 335 330 325 320 318 310 308 307 306 300 295 291 287 283
205 209 206 222 247 314 0 345 343 342 341 347 346 350 354 355 355 356 355 355 354 353 350 349 350 348 344 341 340 338 331 322 325 319 316 313 310 306 299 292 290 289 285
210 211 212 221 235 271 311 328 325 327 334 338 344 350 353 355 356 355 355 353 353 350 349 349 349 349 345 342 342 340 334 330 327 322 314 313 314 310 303 299 293 289 285
211 213 217 222 232 254 283 302 310 318 329 336 344 351 354 355 354 354 354 353 352 350 349 347 348 349 346 343 342 339 336 331 327 319 314 317 315 310 305 301 295 292 285
214 216 221 223 228 245 267 289 299 316 328 333 343 350 353 353 353 354 354 353 352 351 349 348 349 350 347 344 343 339 335 328 325 319 311 319 315 310 307 304 301 300 293
217 220 219 222 224 237 257 274 298 314 323 332 341 349 352 353 353 354 355 354 353 351 348 349 350 348 346 344 344 340 336 325 326 321 313 319 325 313 308 309 303 304 297
221 223 218 222 225 234 250 273 293 310 322 331 341 349 351 352 354 354 354 353 353 350 349 350 350 348 347 344 345 342 338 332 335 330 325 328 327 318 314 310 306 305 297
225 223 221 221 226 233 247 266 289 305 317 330 338 348 350 352 353 353 353 354 353 351 351 350 349 350 347 343 346 346 341 341 342 336 332 331 322 321 317 314 308 303 291
224 225 222 221 225 233 244 261 279 300 313 324 338 346 350 351 352 352 353 353 353 352 351 350 349 351 347 345 347 348 348 350 350 341 323 325 322 327 328 324 313 307 297
222 223 224 221 225 232 241 255 276 297 309 323 336 345 349 351 351 352 353 353 354 353 351 351 353 353 349 348 346 352 352 352 349 332 333 331 328 337 333 340 327 313 297
221 221 222 222 224 230 238 250 269 289 304 320 333 344 347 350 350 352 353 355 355 354 352 353 354 355 350 348 346 353 354 360 344 339 342 341 342 346 339 333 341 332 317
220 222 223 220 222 227 234 245 262 279 295 313 330 341 345 348 349 352 353 356 355 356 353 355 354 356 354 349 350 350 352 347 352 345 350 342 348 349 346 348 345 340 336
218 220 222 221 221 225 231 239 253 273 296 312 327 336 343 345 347 350 355 357 358 358 355 357 354 354 357 355 355 357 352 346 346 351 351 350 350 354 354 353 343 340 339
217 219 221 223 223 225 228 234 244 261 281 302 313 326 341 342 345 350 355 357 360 358 357 0 356 352 358 5 353 355 348 346 342 353 352 351 350 355 358 354 341 348 344
217 218 221 223 223 222 226 233 236 247 269 282 297 327 335 339 345 350 356 358 1 358 359 2 358 358 357 360 4 358 346 332 332 337 345 348 352 358 358 357 351 355 353
221 221 222 222 222 222 226 229 234 243 256 283 303 314 329 336 343 352 357 359 1 359 1 4 360 2 2 351 352 358 349 342 333 330 343 349 354 352 359 358 359 3 359
223 221 222 221 223 225 226 226 233 240 251 267 281 304 325 337 343 352 357 360 1 359 2 4 2 2 1 357 358 355 351 349 344 338 328 339 354 358 3 3 5 11 14
222 223 221 221 223 227 224 226 232 240 246 259 277 304 325 335 341 352 357 1 2 360 2 6 4 2 359 0 0 1 360 350 345 344 338 338 337 347 3 10 13 18 29